Home   Weather   Szeged   Past weeks

Flag for Hungary Past Weather in Szeged, Hungary — Yesterday and Last 2 Weeks

Now
43 °F

Overcast.


Feels Like: 43 °F
Forecast: 54 / 72 °F
Wind: 2 mph from North

Location: Szeged

Current Time: May 1, 2017 at 4:22:43 am

Latest Report: May 1, 2017 at 3:00 am


Visibility: 13 mi

Pressure: 30.03 "Hg

Humidity: 92%

Dew Point: 41 °F

Location of SzegedLocation

Past Weather in Szeged — Graph

°F

Szeged Temperature Yesterday

Maximum temperature yesterday: 61 °F (at 5:00 pm)
Minimum temperature yesterday: 35 °F (at 6:00 am)
Average temperature yesterday: 50 °F

High & Low Weather Summary for the Past Weeks

 TemperatureHumidityPressure
High75 °F (Apr 27, 4:00 pm)100% (Apr 30, 8:00 am)30.34 "Hg (Apr 30, 8:00 am)
Low32 °F (Apr 22, 1:00 am)31% (Apr 26, 4:00 pm)29.67 "Hg (Apr 28, 5:00 pm)
Average50 °F68%30.00 "Hg
* Reported Apr 16 2:00 am — May 1 2:00 am, Szeged, Weather by CustomWeather, © 2017

Note: Actual official high and low records may vary slightly from our data, if they occured in-between our weather recording intervals... More about our weather records

Advertising

Szeged Weather History for the Previous 24 Hours

Scroll right to see more
 ConditionsComfort  
Time TempWeatherWind HumidityBarometerVisibility
2:00 am
Mon, May 1
43 °FPassing clouds.3 mph89%30.03 "Hg12 mi
1:00 am44 °FPassing clouds.3 mph87%30.04 "Hg16 mi
12:00 am44 °FPassing clouds.2 mph82%30.05 "Hg16 mi
11:00 pm
Sun, Apr 30
45 °FClear.2 mph79%30.05 "Hg16 mi
10:00 pm48 °FClear.3 mph70%30.05 "Hg19 mi
9:00 pm51 °FPassing clouds.3 mph64%30.05 "Hg19 mi
8:00 pm55 °FPassing clouds.3 mph56%30.03 "Hg19 mi
7:00 pm59 °FScattered clouds.5 mph46%30.03 "Hg19 mi
6:00 pm60 °FPartly sunny.5 mph47%30.04 "Hg19 mi
5:00 pm61 °FPartly sunny.5 mph47%30.05 "Hg19 mi
4:00 pm60 °FPartly sunny.6 mph48%30.06 "Hg19 mi
3:00 pm59 °FPartly sunny.3 mph52%30.07 "Hg19 mi
2:00 pm59 °FPartly sunny.2 mph55%30.08 "Hg19 mi
1:00 pm58 °FPartly sunny.5 mph59%30.10 "Hg19 mi
12:00 pm54 °FPartly sunny.3 mph69%30.11 "Hg12 mi
11:00 am56 °FPartly sunny.3 mph69%30.11 "Hg12 mi
10:00 am51 °FPartly sunny.5 mph81%30.12 "Hg7 mi
9:00 am47 °FFog.3 mph99%30.11 "Hg2 mi
8:00 am44 °FFog.2 mph100%30.11 "Hg0 mi
7:00 am41 °FFog.No wind99%30.09 "Hg1 mi
6:00 am35 °FFog.1 mph99%30.09 "Hg1 mi
5:00 am35 °FFog.1 mph98%30.09 "Hg1 mi
4:00 am38 °FFog.1 mph98%30.08 "Hg1 mi
Weather by CustomWeather, © 2017

See weather overviewHow to use our weather pages